sat.trackr.live / text

‹ back to catalog

TIANQI-40

NORAD 67479 · 2026-010D

PAYLOAD ACTIVE UNKNOWN

§ Identity

Operator
Country
PRC
Launch date
2026-01-15
Launch site
YSLA
Launch vehicle
Mass (kg)
RCS (m²)

External: N2YO · Heavens-Above · Gunter

§ Orbital elements

Epoch: 2026-05-25T01:25:00.139296Z

Period
102.92 min
Inclination
44.9810°
Eccentricity
0.0011868
Mean motion
13.99141804 rev/d
Perigee alt
888.1 km
Apogee alt
905.4 km
Semi-major
7,274.9 km
B*
7.8111e-5
RAAN
184.8385°
Arg perigee
234.5438°
Mean anomaly
125.4287°
Rev number
1,815

§ Raw data

TIANQI-401 67479U 26010D   26145.05902939 -.00000015  00000+0  78111-4 0  99952 67479  44.9810 184.8385 0011868 234.5438 125.4287 13.99141804 18155

JSON: /api/v1/satellites/67479 · /tle

For live sub-satellite position, see the globe view (requires WebGL).

§ Visibility from observer

Set your observer location to see the next 7 days of passes ≥ 10°. The values pass through the URL so the page stays shareable.

No JS? Fill the form by hand. The geolocation button needs JavaScript.